Location: Gugi
(45.4667°N, 11.1000°E)
Time: 20:47:33
(UTC+00:00)

Cosmos 1980 Rocket - Pass Details

Date: 17 November 2019
Orbit: 828 x 851 km, 71.0° (Epoch: 14 December)

Event Time Altitude Azimuth Distance (km) Brightness Sun altitude
Rises 16:20:56 0° 157° (SSE) 3,382 5.3 -6.8°
Reaches altitude 10° 16:24:11 10° 138° (SE) 2,458 4.4 -7.3°
Maximum altitude 16:27:43 17° 99° (E) 2,000 3.6 -7.9°
Drops below altitude 10° 16:31:17 10° 59° (ENE) 2,478 4.0 -8.5°
Enters shadow 16:31:26 10° 58° (ENE) 2,514 4.0 -8.5°
